Polaris — JD2797 — position and weather

sailwx.info

Track history (hours):
 
Tides and Currents Weather Stations Pressure Air Temp Water Temp Dewpoint Dewpoint Depression Visibility Wind Speed Wind Dir Waves Ship Positions

Polaris

Last reported at 2014-Nov-28 21:33 UTC. Time now 2014-Nov-28 21:48 UTC.
Position N 35°13' E 139°47'.

Length 26 m; draft 2.6 m.

Type: Pilot. MMSI: 431000764.

Date/timePositionNaut miles runAvg speedWind from/ knotsBaromVisibWave heightAir tempDewpointWater temp
2014-Nov-28 21:33N 35°13' E 139°47'9 8.9
2014-Nov-28 20:33N 35°19' E 139°38'0 0.0
2014-Nov-28 19:33N 35°19' E 139°38'0 0.0
2014-Nov-28 18:31N 35°19' E 139°38'0 0.0
2014-Nov-28 17:32N 35°19' E 139°38'0 0.0
2014-Nov-28 16:18N 35°19' E 139°38'0 0.0
2014-Nov-28 15:26N 35°19' E 139°38'0 0.0
2014-Nov-28 14:32N 35°19' E 139°38'0 0.0
2014-Nov-28 13:31N 35°19' E 139°38'0 0.0
2014-Nov-28 12:20N 35°19' E 139°38'910.3
2014-Nov-28 11:28N 35°12' E 139°46'1111.6
2014-Nov-28 10:34N 35°22' E 139°42'5 5.0
2014-Nov-28 09:33N 35°27' E 139°42'8 8.2
2014-Nov-28 08:33N 35°19' E 139°41'2 1.6
2014-Nov-28 07:26N 35°19' E 139°38'0 0.0
2014-Nov-28 06:34N 35°19' E 139°38'0 0.0
2014-Nov-28 05:31N 35°19' E 139°38'0 0.0
2014-Nov-28 04:30N 35°19' E 139°38'0 0.0
2014-Nov-28 03:33N 35°19' E 139°38'0 0.0
2014-Nov-28 02:29N 35°19' E 139°38'0 0.0
2014-Nov-28 01:33N 35°19' E 139°38'0 0.0
2014-Nov-28 00:33N 35°19' E 139°38'0 0.0
2014-Nov-27 23:33N 35°19' E 139°38'0 0.1
2014-Nov-27 22:33N 35°18' E 139°38'7 6.9
2014-Nov-27 21:33N 35°22' E 139°45'1310.3
2014-Nov-27 20:17N 35°09' E 139°47'912.8
2014-Nov-27 19:33N 35°18' E 139°43'3 0.2
2014-Nov-27 01:33N 35°19' E 139°38'8 8.2
2014-Nov-27 00:33N 35°27' E 139°40'8 7.9
2014-Nov-26 23:34N 35°19' E 139°40'1 0.1
2014-Nov-26 03:11N 35°19' E 139°38'8 6.7
2014-Nov-26 02:04N 35°15' E 139°46'611.0
2014-Nov-26 01:33N 35°19' E 139°43'8 8.3
2014-Nov-26 00:33N 35°28' E 139°45'1 1.2
2014-Nov-25 23:31N 35°29' E 139°45'5 5.2
2014-Nov-25 22:34N 35°27' E 139°39'9 8.4
2014-Nov-25 21:32N 35°18' E 139°39'5 0.7
2014-Nov-25 14:33N 35°22' E 139°43'9 4.1
2014-Nov-25 12:24N 35°13' E 139°46'8 9.5
2014-Nov-25 11:32N 35°19' E 139°38'0 0.0
2014-Nov-25 10:30N 35°19' E 139°38'0 0.0
2014-Nov-25 07:31N 35°19' E 139°38'0 0.0
2014-Nov-25 06:32N 35°19' E 139°38'0 0.0
2014-Nov-25 05:31N 35°19' E 139°38'0 0.0
2014-Nov-25 04:32N 35°19' E 139°38'0 0.0
2014-Nov-25 03:32N 35°19' E 139°38'0 0.0
2014-Nov-25 02:33N 35°19' E 139°38'7 7.4
2014-Nov-25 01:34N 35°24' E 139°45'8 7.9
2014-Nov-25 00:33N 35°16' E 139°47'2 2.2
2014-Nov-24 23:32N 35°14' E 139°46'8 7.7
2014-Nov-24 22:32N 35°19' E 139°38'3 0.2
2014-Nov-24 09:33N 35°18' E 139°42'2 2.5
2014-Nov-24 08:34N 35°18' E 139°44'7 7.1
2014-Nov-24 07:33N 35°25' E 139°45'8 6.5
2014-Nov-24 06:17N 35°19' E 139°38'1 0.0
2014-Nov-22 21:34N 35°19' E 139°40'5 5.0
2014-Nov-22 20:33N 35°21' E 139°45'11 9.8
2014-Nov-22 19:26N 35°10' E 139°46'1011.4
2014-Nov-22 18:33N 35°18' E 139°39'1 0.1
2014-Nov-22 10:33N 35°19' E 139°38'0 0.0
2014-Nov-22 09:33N 35°19' E 139°38'7 7.0
2014-Nov-22 08:32N 35°14' E 139°45'8 8.2
2014-Nov-22 07:33N 35°22' E 139°42'4 3.5
2014-Nov-22 06:33N 35°26' E 139°42'8 6.3
2014-Nov-22 05:20N 35°19' E 139°38'0 0.0
2014-Nov-22 04:09N 35°19' E 139°38'0 0.0
2014-Nov-22 03:24N 35°19' E 139°38'0 0.0
2014-Nov-22 02:27N 35°19' E 139°38'0 0.0
2014-Nov-22 01:31N 35°19' E 139°38'0 0.0
2014-Nov-21 06:09N 35°19' E 139°38'0 0.0
2014-Nov-21 05:24N 35°19' E 139°38'0 0.0
2014-Nov-21 04:09N 35°19' E 139°38'0 0.0
2014-Nov-21 03:28N 35°19' E 139°38'0 0.0
2014-Nov-21 02:30N 35°19' E 139°38'3 1.1
2014-Nov-20 23:33N 35°18' E 139°42'2 2.3
2014-Nov-20 22:33N 35°17' E 139°45'8 7.7
2014-Nov-20 21:33N 35°25' E 139°45'8 8.4
2014-Nov-20 20:33N 35°19' E 139°38'0 0.0
2014-Nov-20 19:33N 35°19' E 139°38'0 0.0
2014-Nov-20 18:33N 35°19' E 139°38'0 0.0
2014-Nov-20 17:23N 35°19' E 139°38'0 0.0
2014-Nov-20 16:20N 35°19' E 139°38'0 0.0
2014-Nov-20 13:28N 35°19' E 139°38'0 0.0
2014-Nov-20 12:31N 35°19' E 139°38'0 0.0
2014-Nov-20 11:28N 35°19' E 139°38'0 0.0
2014-Nov-20 10:30N 35°19' E 139°38'0 0.0
2014-Nov-20 08:13N 35°19' E 139°38'  
Track history (hours):
 
Tides and Currents Weather Stations Pressure Air Temp Water Temp Dewpoint Dewpoint Depression Visibility Wind Speed Wind Dir Waves Ship Positions

Polaris

Last reported at 2014-Nov-28 21:33 UTC. Time now 2014-Nov-28 21:48 UTC.
Position N 35°13' E 139°47'.

Length 26 m; draft 2.6 m.

Type: Pilot. MMSI: 431000764.

Date/timePositionNaut miles runAvg speedWind from/ knotsBaromVisibWave heightAir tempDewpointWater temp
2014-Nov-28 21:33N 35°13' E 139°47'9 8.9
2014-Nov-28 20:33N 35°19' E 139°38'0 0.0
2014-Nov-28 19:33N 35°19' E 139°38'0 0.0
2014-Nov-28 18:31N 35°19' E 139°38'0 0.0
2014-Nov-28 17:32N 35°19' E 139°38'0 0.0
2014-Nov-28 16:18N 35°19' E 139°38'0 0.0
2014-Nov-28 15:26N 35°19' E 139°38'0 0.0
2014-Nov-28 14:32N 35°19' E 139°38'0 0.0
2014-Nov-28 13:31N 35°19' E 139°38'0 0.0
2014-Nov-28 12:20N 35°19' E 139°38'910.3
2014-Nov-28 11:28N 35°12' E 139°46'1111.6
2014-Nov-28 10:34N 35°22' E 139°42'5 5.0
2014-Nov-28 09:33N 35°27' E 139°42'8 8.2
2014-Nov-28 08:33N 35°19' E 139°41'2 1.6
2014-Nov-28 07:26N 35°19' E 139°38'0 0.0
2014-Nov-28 06:34N 35°19' E 139°38'0 0.0
2014-Nov-28 05:31N 35°19' E 139°38'0 0.0
2014-Nov-28 04:30N 35°19' E 139°38'0 0.0
2014-Nov-28 03:33N 35°19' E 139°38'0 0.0
2014-Nov-28 02:29N 35°19' E 139°38'0 0.0
2014-Nov-28 01:33N 35°19' E 139°38'0 0.0
2014-Nov-28 00:33N 35°19' E 139°38'0 0.0
2014-Nov-27 23:33N 35°19' E 139°38'0 0.1
2014-Nov-27 22:33N 35°18' E 139°38'7 6.9
2014-Nov-27 21:33N 35°22' E 139°45'1310.3
2014-Nov-27 20:17N 35°09' E 139°47'912.8
2014-Nov-27 19:33N 35°18' E 139°43'3 0.2
2014-Nov-27 01:33N 35°19' E 139°38'8 8.2
2014-Nov-27 00:33N 35°27' E 139°40'8 7.9
2014-Nov-26 23:34N 35°19' E 139°40'1 0.1
2014-Nov-26 03:11N 35°19' E 139°38'8 6.7
2014-Nov-26 02:04N 35°15' E 139°46'611.0
2014-Nov-26 01:33N 35°19' E 139°43'8 8.3
2014-Nov-26 00:33N 35°28' E 139°45'1 1.2
2014-Nov-25 23:31N 35°29' E 139°45'5 5.2
2014-Nov-25 22:34N 35°27' E 139°39'9 8.4
2014-Nov-25 21:32N 35°18' E 139°39'5 0.7
2014-Nov-25 14:33N 35°22' E 139°43'9 4.1
2014-Nov-25 12:24N 35°13' E 139°46'8 9.5
2014-Nov-25 11:32N 35°19' E 139°38'0 0.0
2014-Nov-25 10:30N 35°19' E 139°38'0 0.0
2014-Nov-25 07:31N 35°19' E 139°38'0 0.0
2014-Nov-25 06:32N 35°19' E 139°38'0 0.0
2014-Nov-25 05:31N 35°19' E 139°38'0 0.0
2014-Nov-25 04:32N 35°19' E 139°38'0 0.0
2014-Nov-25 03:32N 35°19' E 139°38'0 0.0
2014-Nov-25 02:33N 35°19' E 139°38'7 7.4
2014-Nov-25 01:34N 35°24' E 139°45'8 7.9
2014-Nov-25 00:33N 35°16' E 139°47'2 2.2
2014-Nov-24 23:32N 35°14' E 139°46'8 7.7
2014-Nov-24 22:32N 35°19' E 139°38'3 0.2
2014-Nov-24 09:33N 35°18' E 139°42'2 2.5
2014-Nov-24 08:34N 35°18' E 139°44'7 7.1
2014-Nov-24 07:33N 35°25' E 139°45'8 6.5
2014-Nov-24 06:17N 35°19' E 139°38'1 0.0
2014-Nov-22 21:34N 35°19' E 139°40'5 5.0
2014-Nov-22 20:33N 35°21' E 139°45'11 9.8
2014-Nov-22 19:26N 35°10' E 139°46'1011.4
2014-Nov-22 18:33N 35°18' E 139°39'1 0.1
2014-Nov-22 10:33N 35°19' E 139°38'0 0.0
2014-Nov-22 09:33N 35°19' E 139°38'7 7.0
2014-Nov-22 08:32N 35°14' E 139°45'8 8.2
2014-Nov-22 07:33N 35°22' E 139°42'4 3.5
2014-Nov-22 06:33N 35°26' E 139°42'8 6.3
2014-Nov-22 05:20N 35°19' E 139°38'0 0.0
2014-Nov-22 04:09N 35°19' E 139°38'0 0.0
2014-Nov-22 03:24N 35°19' E 139°38'0 0.0
2014-Nov-22 02:27N 35°19' E 139°38'0 0.0
2014-Nov-22 01:31N 35°19' E 139°38'0 0.0
2014-Nov-21 06:09N 35°19' E 139°38'0 0.0
2014-Nov-21 05:24N 35°19' E 139°38'0 0.0
2014-Nov-21 04:09N 35°19' E 139°38'0 0.0
2014-Nov-21 03:28N 35°19' E 139°38'0 0.0
2014-Nov-21 02:30N 35°19' E 139°38'3 1.1
2014-Nov-20 23:33N 35°18' E 139°42'2 2.3
2014-Nov-20 22:33N 35°17' E 139°45'8 7.7
2014-Nov-20 21:33N 35°25' E 139°45'8 8.4
2014-Nov-20 20:33N 35°19' E 139°38'0 0.0
2014-Nov-20 19:33N 35°19' E 139°38'0 0.0
2014-Nov-20 18:33N 35°19' E 139°38'0 0.0
2014-Nov-20 17:23N 35°19' E 139°38'0 0.0
2014-Nov-20 16:20N 35°19' E 139°38'0 0.0
2014-Nov-20 13:28N 35°19' E 139°38'0 0.0
2014-Nov-20 12:31N 35°19' E 139°38'0 0.0
2014-Nov-20 11:28N 35°19' E 139°38'0 0.0
2014-Nov-20 10:30N 35°19' E 139°38'0 0.0
2014-Nov-20 08:13N 35°19' E 139°38'  

Dump ship's entire track history